sat.trackr.live / text

‹ back to catalog

ONEWEB-0279

NORAD 48997 · 2021-060AG

PAYLOAD ACTIVE UNKNOWN

§ Identity

Operator
Country
UK
Launch date
2021-07-01
Launch site
VOSTO
Launch vehicle
Mass (kg)
RCS (m²)

Purposes: comms

External: N2YO · Heavens-Above · Gunter

§ Orbital elements

Epoch: 2026-05-25T04:05:46.764096Z

Period
109.37 min
Inclination
87.9108°
Eccentricity
0.0001900
Mean motion
13.16593204 rev/d
Perigee alt
1,196.3 km
Apogee alt
1,199.2 km
Semi-major
7,575.9 km
B*
3.5171e-4
RAAN
233.3419°
Arg perigee
93.2347°
Mean anomaly
266.9001°
Rev number
23,659

§ Raw data

ONEWEB-02791 48997U 21060AG  26145.17068014  .00000147  00000+0  35171-3 0  99922 48997  87.9108 233.3419 0001900  93.2347 266.9001 13.16593204236598

JSON: /api/v1/satellites/48997 · /tle

For live sub-satellite position, see the globe view (requires WebGL).

§ Visibility from observer

Set your observer location to see the next 7 days of passes ≥ 10°. The values pass through the URL so the page stays shareable.

No JS? Fill the form by hand. The geolocation button needs JavaScript.